This is the latest recevied weather packets stored in our database for station/object IW0HP-3. If no packets are shown the sender has not sent any weather packets the latest 10 day(s).
| Time | Temp. | Humidity | Pressure | Rain* | Wind** | Luminosity | Snow |
|---|---|---|---|---|---|---|---|
| 1777297228 | 22.78° C | 40% | 1017.7 hPa | - | - | - | - |
| 1777296023 | 22.78° C | 37% | 1018 hPa | - | - | - | - |
| 1777293612 | 22.78° C | 40% | 1018.2 hPa | - | - | - | - |
| 1777292408 | 22.78° C | 43% | 1018.2 hPa | - | - | - | - |
| 1777291203 | 22.22° C | 41% | 1018.4 hPa | - | - | - | - |
| 1777289999 | 22.22° C | 37% | 1019 hPa | - | - | - | - |
| 1777287590 | 21.11° C | 42% | 1019.1 hPa | - | - | - | - |
| 1777286385 | 21.11° C | 41% | 1019.5 hPa | - | - | - | - |
| 1777285181 | 20.56° C | 42% | 1019.8 hPa | - | - | - | - |
| 1777283976 | 20° C | 46% | 1019.6 hPa | - | - | - | - |
| 1777282772 | 19.44° C | 46% | 1020 hPa | - | - | - | - |
| 1777281567 | 19.44° C | 52% | 1020 hPa | - | - | - | - |
| 1777280362 | 18.89° C | 52% | 1020.2 hPa | - | - | - | - |
| 1777279158 | 18.33° C | 57% | 1020.2 hPa | - | - | - | - |
| 1777276749 | 17.22° C | 59% | 1020.5 hPa | - | - | - | - |
| 1777274340 | 16.67° C | 62% | 1020.6 hPa | - | - | - | - |
| 1777273135 | 16.67° C | 65% | 1020.7 hPa | - | - | - | - |
| 1777271930 | 16.11° C | 66% | 1020.7 hPa | - | - | - | - |
| 1777270726 | 16.11° C | 66% | 1020.7 hPa | - | - | - | - |
| 1777269522 | 15.56° C | 67% | 1020.5 hPa | - | - | - | - |
| 1777268316 | 15.56° C | 69% | 1020.4 hPa | - | - | - | - |
| 1777267113 | 15° C | 66% | 1020.3 hPa | - | - | - | - |
| 1777265907 | 15° C | 69% | 1020.1 hPa | - | - | - | - |
| 1777264703 | 15° C | 63% | 1020 hPa | - | - | - | - |
| 1777263498 | 14.44° C | 63% | 1019.9 hPa | - | - | - | - |
* Rain since midnight (hover to see other rain measurements)
** Current wind speed in m/s (hover to see current wind gust speed)